Weather History for Tulsa Jones, OK

Change the Weather History Date:

Tuesday, February 12, 2013

  Actual Average (KTUL) Record (KTUL)
Temperature  
Mean Temperature 36 °F 41 °F  
Max Temperature 42 °F 52 °F 86 °F (1962)
Min Temperature 30 °F 30 °F 0 °F (1905)
Degree Days  
Heating Degree Days 29 24  
Month to date heating degree days 299  
Since 1 July heating degree days 2572  
Moisture  
Dew Point 31 °F    
Average Humidity 75    
Maximum Humidity 93    
Minimum Humidity 55    
Precipitation  
Precipitation 0.28 in 0.06 in 1.78 in (1978)
Month to date precipitation 0.70  
Year to date precipitation 2.36  
Sea Level Pressure  
Sea Level Pressure 30.06 in    
Wind  
Wind Speed 5 mph (NNE)    
Max Wind Speed 10 mph    
Max Gust Speed -    
Visibility 10 miles    
Events Rain , Snow    
T = Trace of Precipitation, MM = Missing Value Source: NWS Daily Summary

Daily Weather History Graph

Daily Weather History Graph

Search for Another Location

Airport:

Trip Planner

Search our weather history database for the weather conditions in past years. The results will help you decide how hot, cold, wet, or windy it might be!

Date:

Astronomy

Feb. 12, 2013 Rise Set
Actual Time 7:14 AM CST 6:02 PM CST
Civil Twilight 6:47 AM CST 6:28 PM CST
Nautical Twilight 6:17 AM CST 6:59 PM CST
Astronomical Twilight 5:47 AM CST 7:29 PM CST
Moon 8:18 AM CST (2/12) 8:56 PM CST (2/12)
Length of Visible Light 11h 41m
Length of Day
10h 48m
Waxing Crescent, 7% of the Moon is Illuminated
Feb 12
Waxing Crescent
Feb 17
First Quarter
Feb 25
Full
Mar 4
Last Quarter
Mar 11
New

Hourly Weather History & Observations

Time (CST) Temp. Windchill Dew Point Humidity Pressure Visibility Wind Dir Wind Speed Gust Speed Precip Events Conditions
12:53 AM 30.9 °F - 25.0 °F 79% 30.14 in 10.0 mi Calm Calm - N/A   Clear
1:53 AM 37.0 °F 31.6 °F 25.0 °F 62% 30.12 in 10.0 mi NNE 6.9 mph - N/A   Mostly Cloudy
2:53 AM 37.9 °F 33.5 °F 25.0 °F 60% 30.12 in 10.0 mi NNE 5.8 mph - N/A   Clear
3:53 AM 37.9 °F - 25.0 °F 60% 30.10 in 10.0 mi Calm Calm - N/A   Mostly Cloudy
4:53 AM 39.0 °F 34.8 °F 26.1 °F 60% 30.11 in 10.0 mi North 5.8 mph - N/A   Overcast
5:53 AM 37.9 °F 32.7 °F 27.0 °F 65% 30.12 in 10.0 mi North 6.9 mph - N/A   Mostly Cloudy
6:53 AM 37.9 °F 32.7 °F 28.0 °F 68% 30.11 in 10.0 mi NNE 6.9 mph - N/A   Overcast
7:53 AM 39.0 °F 32.8 °F 27.0 °F 62% 30.07 in 10.0 mi NNE 9.2 mph - N/A   Scattered Clouds
8:53 AM 39.9 °F 33.9 °F 27.0 °F 60% 30.08 in 10.0 mi NNE 9.2 mph - N/A   Overcast
9:53 AM 41.0 °F 36.4 °F 27.0 °F 57% 30.09 in 10.0 mi NNE 6.9 mph - N/A   Overcast
10:53 AM 42.1 °F 37.1 °F 27.0 °F 55% 30.08 in 10.0 mi NNE 8.1 mph - 0.00 in   Overcast
11:53 AM 42.1 °F 37.7 °F 30.0 °F 62% 30.09 in 10.0 mi ENE 6.9 mph - 0.00 in Rain Light Rain
12:53 PM 41.0 °F 39.0 °F 33.1 °F 73% 30.07 in 10.0 mi ENE 3.5 mph - 0.04 in Rain Light Rain
1:39 PM 39.2 °F 35.0 °F 33.8 °F 81% 30.01 in 10.0 mi NE 5.8 mph - 0.01 in Rain Light Rain
1:53 PM 41.0 °F 36.4 °F 34.0 °F 76% 30.02 in 10.0 mi ENE 6.9 mph - 0.01 in Rain Light Rain
2:53 PM 41.0 °F - 35.1 °F 79% 30.00 in 10.0 mi Calm Calm - 0.01 in Rain Light Rain
3:05 PM 41.0 °F 39.0 °F 35.6 °F 81% 29.98 in 10.0 mi North 3.5 mph - 0.01 in Rain Light Rain
3:53 PM 41.0 °F 38.0 °F 36.0 °F 82% 29.99 in 10.0 mi North 4.6 mph - 0.04 in Rain Light Rain
4:25 PM 39.2 °F 35.0 °F 35.6 °F 87% 29.97 in 10.0 mi North 5.8 mph - 0.01 in Rain Light Rain
4:53 PM 39.0 °F 36.8 °F 35.1 °F 86% 29.99 in 10.0 mi North 3.5 mph - 0.03 in Rain Light Rain
5:53 PM 37.9 °F 32.1 °F 34.0 °F 86% 30.01 in 7.0 mi North 8.1 mph - 0.03 in Rain Light Rain
6:25 PM 35.6 °F 29.2 °F 33.8 °F 93% 30.00 in 9.0 mi North 8.1 mph - 0.03 in Rain Light Rain
6:53 PM 35.1 °F 27.9 °F 32.0 °F 89% 30.03 in 8.0 mi North 9.2 mph - 0.05 in Rain Light Rain
7:53 PM 34.0 °F 27.2 °F 30.9 °F 89% 30.05 in 6.0 mi North 8.1 mph - 0.03 in Snow Light Snow
8:53 PM 34.0 °F 26.0 °F 32.0 °F 92% 30.05 in 10.0 mi North 10.4 mph - 0.03 in Rain Light Rain
9:53 PM 35.1 °F 29.3 °F 32.0 °F 89% 30.06 in 10.0 mi North 6.9 mph - 0.01 in Rain Light Rain
10:53 PM 35.1 °F 31.0 °F 32.0 °F 89% 30.05 in 10.0 mi North 4.6 mph - 0.00 in   Overcast
11:53 PM 35.1 °F 32.2 °F 32.0 °F 89% 30.06 in 10.0 mi NNW 3.5 mph - 0.00 in Rain Light Rain